User: anonymous   Login
Location: Unspecified
(0.0000°N, 0.0000°E)
Time: 06:47:46
(UTC+00:00)
Language:

STARLINK-33834 - Orbit

View from above orbital plane
View from above orbital plane
View from above satellite
View from above satellite

Ground track
Ground track

The orbit is defined by the following mean orbital elements,

1 63586U          26145.01908638 +.00000000 +00000-0 +45704-3 0 00007
2 63586  43.0000 250.6522 0001319 240.0558 120.0163 15.27585791    00
Epoch (UTC): 25 May 2026 00:27:29
Eccentricity: 0.0001319
inclination: 43.0000°
perigee height: 482 km
apogee height: 484 km
right ascension of ascending node: 250.6522°
argument of perigee: 240.0558°
revolutions per day: 15.27585791
mean anomaly at epoch: 120.0163°

The dashed part of the orbit path shows where the satellite is in the earth's shadow,  

DLR